Walla Walla, WA

2:04 PM PDT on May 29, 2017 (GMT -0700)
Walla Walla Regional

Weather History for KALW - July, 2013

Change the Weather History Date:

Monday, July 29, 2013

  Actual Average Record
Temperature  
Mean Temperature 76 °F 77 °F  
Max Temperature 91 °F 92 °F 106 °F (1960)
Min Temperature 61 °F 63 °F 51 °F (1954)
Degree Days  
Heating Degree Days 0 0  
Month to date heating degree days 2  
Since 1 June heating degree days 64  
Since 1 July heating degree days 2  
Cooling Degree Days 10 12  
Month to date cooling degree days 292  
Year to date cooling degree days 434  
Since 1 June cooling degree days 399  
Growing Degree Days 26 (Base 50)    
Moisture  
Dew Point 37 °F    
Average Humidity 27    
Maximum Humidity 46    
Minimum Humidity 11    
Precipitation  
Precipitation 0.00 in 0.01 in 0.03 in (1975)
Month to date precipitation 0.56  
Year to date precipitation 12.48  
Snow  
Snow 0.00 in 0.00 in 0.00 in (2002)
Month to date snowfall 0.0  
Year to date snowfall 6.0  
Since 1 July snowfall 0.0  
Snow Depth -    
Sea Level Pressure  
Sea Level Pressure 29.87 in    
Wind  
Wind Speed 8 mph (SSW)    
Max Wind Speed 14 mph    
Max Gust Speed -    
Visibility 10 miles    
Events      
T = Trace of Precipitation, MM = Missing Value Source: NWS Daily Summary

Daily Weather History Graph

Daily Weather History Graph

Search for Another Location

Airport or City:

Trip Planner

Search our weather history database for the weather conditions in past years. The results will help you decide how hot, cold, wet, or windy it might be!

Date:

Astronomy

Jul. 29, 2013 Rise Set
Actual Time 5:32 AM PDT 8:26 PM PDT
Civil Twilight 4:57 AM PDT 9:01 PM PDT
Nautical Twilight 4:12 AM PDT 9:45 PM PDT
Astronomical Twilight 3:18 AM PDT 10:38 PM PDT
Moon 11:57 PM PDT 1:48 PM PDT
Length of Visible Light 16h 04m
Length of Day
14h 54m
Waning Gibbous, 50% of the Moon is Illuminated
Jul 29
Waning Gibbous
Aug 6
New
Aug 14
First Quarter
Aug 20
Full
Aug 28
Last Quarter

Hourly Weather History & Observations

Time (PDT) Temp. Dew Point Humidity Pressure Visibility Wind Dir Wind Speed Gust Speed Precip Events Conditions
12:53 AM 66.9 °F 41.0 °F 39% 29.86 in 10.0 mi South 10.4 mph - N/A   Partly Cloudy
1:53 AM 66.0 °F 42.1 °F 42% 29.86 in 10.0 mi SSE 10.4 mph - N/A   Clear
2:53 AM 66.0 °F 41.0 °F 40% 29.86 in 10.0 mi South 10.4 mph - N/A   Clear
3:53 AM 64.0 °F 39.9 °F 41% 29.87 in 10.0 mi South 9.2 mph - N/A   Clear
4:53 AM 61.0 °F 39.9 °F 46% 29.88 in 10.0 mi South 5.8 mph - N/A   Clear
5:53 AM 61.0 °F 39.9 °F 46% 29.89 in 10.0 mi SSE 4.6 mph - N/A   Clear
6:53 AM 64.0 °F 39.0 °F 40% 29.90 in 10.0 mi South 5.8 mph - N/A   Clear
7:53 AM 68.0 °F 37.9 °F 33% 29.91 in 10.0 mi SSW 11.5 mph - N/A   Clear
8:53 AM 72.0 °F 39.9 °F 31% 29.91 in 10.0 mi SW 13.8 mph - N/A   Clear
9:53 AM 73.9 °F 39.0 °F 28% 29.91 in 10.0 mi WSW 11.5 mph - N/A   Clear
10:53 AM 75.9 °F 39.9 °F 27% 29.90 in 10.0 mi SSW 4.6 mph - N/A   Clear
11:53 AM 79.0 °F 39.0 °F 24% 29.89 in 10.0 mi SW 8.1 mph - N/A   Clear
12:53 PM 81.0 °F 39.0 °F 22% 29.88 in 10.0 mi Variable 4.6 mph - N/A   Clear
1:53 PM 84.9 °F 37.0 °F 18% 29.86 in 10.0 mi WSW 5.8 mph - N/A   Clear
2:53 PM 87.1 °F 36.0 °F 16% 29.85 in 10.0 mi Variable 4.6 mph - N/A   Clear
3:53 PM 89.1 °F 30.0 °F 12% 29.83 in 10.0 mi SSW 9.2 mph - N/A   Clear
4:53 PM 90.0 °F 28.9 °F 11% 29.83 in 10.0 mi West 11.5 mph - N/A   Clear
5:53 PM 90.0 °F 28.9 °F 11% 29.82 in 10.0 mi SSW 6.9 mph - N/A   Clear
6:53 PM 89.1 °F 28.0 °F 11% 29.82 in 10.0 mi WSW 5.8 mph - N/A   Clear
7:53 PM 87.1 °F 32.0 °F 14% 29.83 in 10.0 mi West 8.1 mph - N/A   Clear
8:53 PM 81.0 °F 36.0 °F 20% 29.83 in 10.0 mi WNW 3.5 mph - N/A   Clear
9:53 PM 75.0 °F 37.9 °F 26% 29.86 in 10.0 mi ESE 5.8 mph - N/A   Clear
10:53 PM 73.0 °F 37.9 °F 28% 29.87 in 10.0 mi ESE 6.9 mph - N/A   Clear
11:53 PM 73.0 °F 37.0 °F 27% 29.88 in 10.0 mi East 6.9 mph - N/A   Clear